Time,TemperatureF,DewpointF,PressureIn,WindDirection,WindDirectionDegrees,WindSpeedMPH,WindSpeedGustMPH,Humidity,HourlyPrecipIn,Conditions,Clouds,dailyrainin,SoftwareType,DateUTC
2013-07-17 00:02:00,56.7,46.2,29.98,NE,39,6.0,10.0,68,0.00,,,0.00,meteohub,2013-07-17 06:02:00,
2013-07-17 00:08:00,56.5,46.4,29.98,NNE,29,5.0,10.0,69,0.00,,,0.00,meteohub,2013-07-17 06:08:00,
2013-07-17 00:14:00,56.5,46.4,29.98,NNE,29,4.0,10.0,69,0.00,,,0.00,meteohub,2013-07-17 06:14:00,
2013-07-17 00:20:00,56.1,46.4,29.98,NE,43,6.0,9.0,70,0.00,,,0.00,meteohub,2013-07-17 06:20:00,
2013-07-17 00:26:00,56.1,46.8,29.98,NNE,26,6.0,9.0,71,0.00,,,0.00,meteohub,2013-07-17 06:26:00,
2013-07-17 00:32:00,55.9,46.8,29.98,NNE,25,4.0,9.0,71,0.00,,,0.00,meteohub,2013-07-17 06:32:00,
2013-07-17 00:38:00,55.8,46.9,29.98,North,10,5.0,9.0,72,0.00,,,0.00,meteohub,2013-07-17 06:38:00,
2013-07-17 00:44:00,55.8,47.3,29.98,NNE,16,4.0,9.0,73,0.00,,,0.00,meteohub,2013-07-17 06:44:00,
2013-07-17 00:50:00,55.6,47.1,29.98,NNE,30,8.0,8.0,73,0.00,,,0.00,meteohub,2013-07-17 06:50:00,
2013-07-17 00:56:00,55.2,47.1,29.98,North,10,4.0,8.0,74,0.00,,,0.00,meteohub,2013-07-17 06:56:00,
2013-07-17 01:02:00,55.0,47.3,29.98,North,10,5.0,8.0,75,0.00,,,0.00,meteohub,2013-07-17 07:02:00,
2013-07-17 01:08:00,54.9,47.1,29.98,North,10,6.0,8.0,75,0.00,,,0.00,meteohub,2013-07-17 07:08:00,
2013-07-17 01:14:00,54.9,47.1,29.98,North,10,3.0,7.0,75,0.00,,,0.00,meteohub,2013-07-17 07:14:00,
2013-07-17 01:20:00,54.7,47.3,29.98,North,10,2.0,6.0,76,0.00,,,0.00,meteohub,2013-07-17 07:20:00,
2013-07-17 01:26:00,54.3,47.3,29.98,North,10,3.0,6.0,77,0.00,,,0.00,meteohub,2013-07-17 07:26:00,
2013-07-17 01:32:00,54.1,47.1,29.98,North,352,4.0,6.0,77,0.00,,,0.00,meteohub,2013-07-17 07:32:00,
2013-07-17 01:38:00,54.0,47.3,29.98,North,352,5.0,6.0,78,0.00,,,0.00,meteohub,2013-07-17 07:38:00,
2013-07-17 01:44:00,53.8,47.5,29.97,North,351,3.0,6.0,79,0.00,,,0.00,meteohub,2013-07-17 07:44:00,
2013-07-17 01:50:00,53.4,47.1,29.97,North,351,3.0,6.0,79,0.00,,,0.00,meteohub,2013-07-17 07:50:00,
2013-07-17 01:56:00,53.4,47.1,29.98,North,351,4.0,5.0,79,0.00,,,0.00,meteohub,2013-07-17 07:56:00,
2013-07-17 02:02:00,53.4,47.1,29.97,North,351,2.0,5.0,79,0.00,,,0.00,meteohub,2013-07-17 08:02:00,
2013-07-17 02:08:00,53.2,47.3,29.97,North,351,4.0,4.0,80,0.00,,,0.00,meteohub,2013-07-17 08:08:00,
2013-07-17 02:14:00,53.1,47.1,29.97,North,351,3.0,5.0,80,0.00,,,0.00,meteohub,2013-07-17 08:14:00,
2013-07-17 02:20:00,52.7,47.1,29.97,North,351,3.0,5.0,81,0.00,,,0.00,meteohub,2013-07-17 08:20:00,
2013-07-17 02:26:00,52.3,46.9,29.97,North,351,2.0,4.0,82,0.00,,,0.00,meteohub,2013-07-17 08:26:00,
2013-07-17 02:32:00,52.3,46.9,29.97,North,351,0.0,4.0,82,0.00,,,0.00,meteohub,2013-07-17 08:32:00,
2013-07-17 02:39:00,52.0,46.9,29.97,North,351,2.0,4.0,83,0.00,,,0.00,meteohub,2013-07-17 08:39:00,
2013-07-17 02:45:00,51.8,46.8,29.97,North,351,3.0,4.0,83,0.00,,,0.00,meteohub,2013-07-17 08:45:00,
2013-07-17 02:51:00,51.6,46.9,29.97,North,351,3.0,4.0,84,0.00,,,0.00,meteohub,2013-07-17 08:51:00,
2013-07-17 02:57:00,51.6,46.9,29.97,North,351,3.0,5.0,84,0.00,,,0.00,meteohub,2013-07-17 08:57:00,
2013-07-17 03:03:00,51.4,46.8,29.97,North,351,3.0,5.0,84,0.00,,,0.00,meteohub,2013-07-17 09:03:00,
2013-07-17 03:09:00,51.4,47.1,29.97,North,351,3.0,5.0,85,0.00,,,0.00,meteohub,2013-07-17 09:09:00,
2013-07-17 03:15:00,51.4,47.5,29.97,North,351,4.0,5.0,86,0.00,,,0.00,meteohub,2013-07-17 09:15:00,
2013-07-17 03:21:00,51.3,47.3,29.97,North,351,2.0,4.0,86,0.00,,,0.00,meteohub,2013-07-17 09:21:00,
2013-07-17 03:27:00,51.3,47.5,29.97,North,351,1.0,4.0,87,0.00,,,0.00,meteohub,2013-07-17 09:27:00,
2013-07-17 03:33:00,51.1,47.3,29.97,North,351,1.0,4.0,87,0.00,,,0.00,meteohub,2013-07-17 09:33:00,
2013-07-17 03:39:00,50.7,47.3,29.97,North,351,2.0,4.0,88,0.00,,,0.00,meteohub,2013-07-17 09:39:00,
2013-07-17 03:45:00,50.7,47.3,29.97,North,351,3.0,4.0,88,0.00,,,0.00,meteohub,2013-07-17 09:45:00,
2013-07-17 03:51:00,50.7,47.3,29.97,North,351,2.0,4.0,88,0.00,,,0.00,meteohub,2013-07-17 09:51:00,
2013-07-17 03:57:00,50.7,47.3,29.97,North,351,1.0,4.0,88,0.00,,,0.00,meteohub,2013-07-17 09:57:00,
2013-07-17 04:03:00,50.7,47.3,29.97,North,351,2.0,4.0,88,0.00,,,0.00,meteohub,2013-07-17 10:03:00,
2013-07-17 04:09:00,50.5,47.1,29.97,North,351,1.0,4.0,88,0.00,,,0.00,meteohub,2013-07-17 10:09:00,
2013-07-17 04:15:00,50.4,47.3,29.97,North,351,0.0,2.0,89,0.00,,,0.00,meteohub,2013-07-17 10:15:00,
2013-07-17 04:21:00,50.2,47.1,29.97,North,351,0.0,2.0,89,0.00,,,0.00,meteohub,2013-07-17 10:21:00,
2013-07-17 04:27:00,50.0,46.9,29.97,North,351,0.0,2.0,89,0.00,,,0.00,meteohub,2013-07-17 10:27:00,
2013-07-17 04:33:00,49.8,46.9,29.97,North,351,0.0,1.0,90,0.00,,,0.00,meteohub,2013-07-17 10:33:00,
2013-07-17 04:39:00,49.6,46.6,29.97,North,351,0.0,1.0,89,0.00,,,0.00,meteohub,2013-07-17 10:39:00,
2013-07-17 04:45:00,49.5,46.4,29.97,North,351,0.0,2.0,89,0.00,,,0.00,meteohub,2013-07-17 10:45:00,
2013-07-17 04:51:00,49.3,46.4,29.97,North,351,0.0,2.0,90,0.00,,,0.00,meteohub,2013-07-17 10:51:00,
2013-07-17 04:57:00,49.3,46.8,29.97,North,351,0.0,2.0,91,0.00,,,0.00,meteohub,2013-07-17 10:57:00,
2013-07-17 05:03:00,48.9,46.0,29.97,North,351,0.0,1.0,90,0.00,,,0.00,meteohub,2013-07-17 11:03:00,
2013-07-17 05:09:00,48.7,45.9,29.97,North,351,0.0,1.0,90,0.00,,,0.00,meteohub,2013-07-17 11:09:00,
2013-07-17 05:15:00,48.6,46.0,29.97,North,351,2.0,2.0,91,0.00,,,0.00,meteohub,2013-07-17 11:15:00,
2013-07-17 05:21:00,48.6,46.4,29.97,North,351,1.0,2.0,92,0.00,,,0.00,meteohub,2013-07-17 11:21:00,
2013-07-17 05:27:00,48.6,46.4,29.98,North,351,1.0,2.0,92,0.00,,,0.00,meteohub,2013-07-17 11:27:00,
2013-07-17 05:33:00,48.6,46.4,29.98,North,351,2.0,2.0,92,0.00,,,0.00,meteohub,2013-07-17 11:33:00,
2013-07-17 05:39:00,48.6,46.4,29.98,North,351,1.0,2.0,92,0.00,,,0.00,meteohub,2013-07-17 11:39:00,
2013-07-17 05:45:00,48.6,46.4,29.98,North,351,0.0,2.0,92,0.00,,,0.00,meteohub,2013-07-17 11:45:00,
2013-07-17 05:51:00,48.6,46.4,29.98,North,351,0.0,2.0,92,0.00,,,0.00,meteohub,2013-07-17 11:51:00,
2013-07-17 05:57:00,48.6,46.4,29.98,North,351,0.0,0.0,92,0.00,,,0.00,meteohub,2013-07-17 11:57:00,
2013-07-17 06:04:00,48.6,46.4,29.98,North,351,0.0,0.0,92,0.00,,,0.00,meteohub,2013-07-17 12:04:00,
2013-07-17 06:10:00,48.7,46.6,29.98,North,351,1.0,0.0,92,0.00,,,0.00,meteohub,2013-07-17 12:10:00,
2013-07-17 06:16:00,48.7,46.6,29.98,North,351,0.0,2.0,92,0.00,,,0.00,meteohub,2013-07-17 12:16:00,
2013-07-17 06:22:00,48.9,46.9,29.98,North,351,0.0,2.0,93,0.00,,,0.00,meteohub,2013-07-17 12:22:00,
2013-07-17 06:28:00,49.5,47.5,29.98,North,351,0.0,2.0,93,0.00,,,0.00,meteohub,2013-07-17 12:28:00,
2013-07-17 06:34:00,50.2,48.2,29.98,North,351,0.0,0.0,93,0.00,,,0.00,meteohub,2013-07-17 12:34:00,
2013-07-17 06:40:00,50.5,48.4,29.98,North,351,0.0,3.0,92,0.00,,,0.00,meteohub,2013-07-17 12:40:00,
2013-07-17 06:46:00,50.7,47.8,29.98,North,351,2.0,3.0,90,0.00,,,0.00,meteohub,2013-07-17 12:46:00,
2013-07-17 06:52:00,51.1,48.2,29.98,North,351,3.0,5.0,90,0.00,,,0.00,meteohub,2013-07-17 12:52:00,
2013-07-17 06:58:00,51.6,48.2,29.98,North,351,5.0,5.0,88,0.00,,,0.00,meteohub,2013-07-17 12:58:00,
2013-07-17 07:04:00,52.2,48.0,29.98,North,351,2.0,6.0,86,0.00,,,0.00,meteohub,2013-07-17 13:04:00,
2013-07-17 07:10:00,52.3,48.0,29.98,North,352,3.0,6.0,85,0.00,,,0.00,meteohub,2013-07-17 13:10:00,
2013-07-17 07:16:00,52.9,48.2,29.98,North,10,4.0,6.0,84,0.00,,,0.00,meteohub,2013-07-17 13:16:00,
2013-07-17 07:22:00,53.2,48.2,29.98,North,10,3.0,6.0,83,0.00,,,0.00,meteohub,2013-07-17 13:22:00,
2013-07-17 07:28:00,53.8,48.4,29.98,North,10,2.0,6.0,82,0.00,,,0.00,meteohub,2013-07-17 13:28:00,
2013-07-17 07:34:00,54.0,48.6,29.98,North,10,2.0,6.0,82,0.00,,,0.00,meteohub,2013-07-17 13:34:00,
2013-07-17 07:40:00,54.7,48.9,29.98,North,10,2.0,5.0,81,0.00,,,0.00,meteohub,2013-07-17 13:40:00,
2013-07-17 07:46:00,54.9,48.7,29.98,NE,35,0.0,5.0,80,0.00,,,0.00,meteohub,2013-07-17 13:46:00,
2013-07-17 07:52:00,54.9,48.7,29.98,NE,35,0.0,5.0,80,0.00,,,0.00,meteohub,2013-07-17 13:52:00,
2013-07-17 07:58:00,54.9,48.7,29.98,NE,35,1.0,5.0,80,0.00,,,0.00,meteohub,2013-07-17 13:58:00,
2013-07-17 08:04:00,54.7,48.6,29.98,NE,35,1.0,3.0,80,0.00,,,0.00,meteohub,2013-07-17 14:04:00,
2013-07-17 08:10:00,54.7,48.6,29.98,NE,35,2.0,5.0,80,0.00,,,0.00,meteohub,2013-07-17 14:10:00,
2013-07-17 08:16:00,54.9,48.7,29.98,NE,35,3.0,5.0,80,0.00,,,0.00,meteohub,2013-07-17 14:16:00,
2013-07-17 08:22:00,55.2,49.1,29.98,NE,35,3.0,5.0,80,0.00,,,0.00,meteohub,2013-07-17 14:22:00,
2013-07-17 08:28:00,55.6,48.9,29.98,NE,49,3.0,5.0,78,0.00,,,0.00,meteohub,2013-07-17 14:28:00,
2013-07-17 08:34:00,56.1,48.9,29.98,NE,49,1.0,6.0,77,0.00,,,0.00,meteohub,2013-07-17 14:34:00,
2013-07-17 08:40:00,56.7,49.5,29.98,NE,49,2.0,6.0,77,0.00,,,0.00,meteohub,2013-07-17 14:40:00,
2013-07-17 08:46:00,56.7,49.5,29.97,East,89,2.0,4.0,77,0.00,,,0.00,meteohub,2013-07-17 14:46:00,
2013-07-17 08:52:00,56.5,49.6,29.98,East,93,5.0,6.0,78,0.00,,,0.00,meteohub,2013-07-17 14:52:00,
2013-07-17 08:58:00,56.1,49.6,29.98,East,93,3.0,6.0,79,0.00,,,0.00,meteohub,2013-07-17 14:58:00,
2013-07-17 09:04:00,56.8,49.3,29.98,East,93,2.0,6.0,76,0.00,,,0.00,meteohub,2013-07-17 15:04:00,
2013-07-17 09:10:00,57.6,48.9,29.97,East,93,1.0,6.0,73,0.00,,,0.00,meteohub,2013-07-17 15:10:00,
2013-07-17 09:16:00,57.9,49.3,29.97,East,93,1.0,5.0,73,0.00,,,0.00,meteohub,2013-07-17 15:16:00,
2013-07-17 09:22:00,58.3,49.6,29.97,East,93,6.0,6.0,73,0.00,,,0.00,meteohub,2013-07-17 15:22:00,
2013-07-17 09:29:00,59.2,49.5,29.96,ESE,102,5.0,7.0,70,0.00,,,0.00,meteohub,2013-07-17 15:29:00,
2013-07-17 09:35:00,59.4,49.1,29.96,ESE,102,2.0,7.0,69,0.00,,,0.00,meteohub,2013-07-17 15:35:00,
2013-07-17 09:41:00,59.5,49.8,29.96,ESE,120,2.0,7.0,70,0.00,,,0.00,meteohub,2013-07-17 15:41:00,
2013-07-17 09:47:00,59.5,49.3,29.96,ESE,120,0.0,7.0,69,0.00,,,0.00,meteohub,2013-07-17 15:47:00,
2013-07-17 09:53:00,59.5,49.8,29.96,ESE,120,1.0,7.0,70,0.00,,,0.00,meteohub,2013-07-17 15:53:00,
2013-07-17 09:59:00,60.1,49.1,29.97,ESE,120,0.0,7.0,67,0.00,,,0.00,meteohub,2013-07-17 15:59:00,
2013-07-17 10:05:00,60.6,49.6,29.97,ESE,120,2.0,7.0,67,0.00,,,0.00,meteohub,2013-07-17 16:05:00,
2013-07-17 10:11:00,60.8,50.5,29.97,ESE,120,2.0,4.0,69,0.00,,,0.00,meteohub,2013-07-17 16:11:00,
2013-07-17 10:17:00,61.5,50.5,29.97,ESE,120,1.0,4.0,67,0.00,,,0.00,meteohub,2013-07-17 16:17:00,
2013-07-17 10:23:00,62.6,50.7,29.97,ESE,120,3.0,4.0,65,0.00,,,0.00,meteohub,2013-07-17 16:23:00,
2013-07-17 10:29:00,63.1,49.8,29.96,ESE,120,3.0,4.0,62,0.00,,,0.00,meteohub,2013-07-17 16:29:00,
2013-07-17 10:35:00,63.9,50.2,29.97,ESE,120,0.0,7.0,61,0.00,,,0.00,meteohub,2013-07-17 16:35:00,
2013-07-17 10:41:00,64.0,50.4,29.96,ESE,120,1.0,7.0,61,0.00,,,0.00,meteohub,2013-07-17 16:41:00,
2013-07-17 10:47:00,64.8,49.6,29.96,ESE,118,2.0,7.0,58,0.00,,,0.00,meteohub,2013-07-17 16:47:00,
2013-07-17 10:53:00,64.9,49.8,29.96,ESE,118,2.0,7.0,58,0.00,,,0.00,meteohub,2013-07-17 16:53:00,
2013-07-17 10:59:00,65.5,51.3,29.96,ESE,118,3.0,7.0,60,0.00,,,0.00,meteohub,2013-07-17 16:59:00,
2013-07-17 11:05:00,65.7,49.5,29.96,ESE,118,3.0,7.0,56,0.00,,,0.00,meteohub,2013-07-17 17:05:00,
2013-07-17 11:11:00,65.8,50.2,29.96,ESE,118,8.0,8.0,57,0.00,,,0.00,meteohub,2013-07-17 17:11:00,
2013-07-17 11:17:00,66.6,50.9,29.95,ESE,118,2.0,8.0,57,0.00,,,0.00,meteohub,2013-07-17 17:17:00,
2013-07-17 11:23:00,66.6,50.4,29.95,ESE,118,3.0,8.0,56,0.00,,,0.00,meteohub,2013-07-17 17:23:00,
2013-07-17 11:29:00,66.7,50.5,29.95,ESE,120,4.0,8.0,56,0.00,,,0.00,meteohub,2013-07-17 17:29:00,
2013-07-17 11:35:00,67.3,51.1,29.95,ESE,121,0.0,8.0,56,0.00,,,0.00,meteohub,2013-07-17 17:35:00,
2013-07-17 11:41:00,67.8,51.1,29.95,ESE,120,2.0,8.0,55,0.00,,,0.00,meteohub,2013-07-17 17:41:00,
2013-07-17 11:47:00,68.0,50.2,29.95,ESE,120,0.0,7.0,53,0.00,,,0.00,meteohub,2013-07-17 17:47:00,
2013-07-17 11:53:00,68.5,50.2,29.95,ESE,120,3.0,7.0,52,0.00,,,0.00,meteohub,2013-07-17 17:53:00,
2013-07-17 11:59:00,69.1,50.2,29.94,ESE,120,1.0,7.0,51,0.00,,,0.00,meteohub,2013-07-17 17:59:00,
2013-07-17 12:05:00,69.3,49.8,29.94,ESE,120,4.0,7.0,50,0.00,,,0.00,meteohub,2013-07-17 18:05:00,
2013-07-17 12:11:00,69.4,48.9,29.94,SE,126,5.0,7.0,48,0.00,,,0.00,meteohub,2013-07-17 18:11:00,
2013-07-17 12:17:00,69.8,49.3,29.93,SE,126,4.0,9.0,48,0.00,,,0.00,meteohub,2013-07-17 18:17:00,
2013-07-17 12:23:00,70.0,48.7,29.93,South,179,3.0,9.0,47,0.00,,,0.00,meteohub,2013-07-17 18:23:00,
2013-07-17 12:29:00,70.3,49.6,29.92,SE,128,4.0,7.0,48,0.00,,,0.00,meteohub,2013-07-17 18:29:00,
2013-07-17 12:35:00,70.7,50.0,29.92,SE,124,3.0,8.0,48,0.00,,,0.00,meteohub,2013-07-17 18:35:00,
2013-07-17 12:41:00,71.1,49.3,29.92,SE,142,6.0,8.0,46,0.00,,,0.00,meteohub,2013-07-17 18:41:00,
2013-07-17 12:48:00,71.4,48.4,29.91,SE,137,3.0,9.0,44,0.00,,,0.00,meteohub,2013-07-17 18:48:00,
2013-07-17 12:54:00,71.8,48.7,29.91,SE,139,3.0,9.0,44,0.00,,,0.00,meteohub,2013-07-17 18:54:00,
2013-07-17 13:00:00,72.3,49.8,29.91,SE,136,0.0,9.0,45,0.00,,,0.00,meteohub,2013-07-17 19:00:00,
2013-07-17 13:06:00,72.7,48.9,29.91,SE,136,3.0,7.0,43,0.00,,,0.00,meteohub,2013-07-17 19:06:00,
2013-07-17 13:12:00,72.9,49.1,29.91,SE,129,4.0,7.0,43,0.00,,,0.00,meteohub,2013-07-17 19:12:00,
2013-07-17 13:18:00,73.0,49.3,29.90,SE,130,7.0,7.0,43,0.00,,,0.00,meteohub,2013-07-17 19:18:00,
2013-07-17 13:24:00,73.2,48.0,29.90,SSE,168,4.0,9.0,41,0.00,,,0.00,meteohub,2013-07-17 19:24:00,
2013-07-17 13:30:00,73.8,49.8,29.90,ESE,120,7.0,10.0,43,0.00,,,0.00,meteohub,2013-07-17 19:30:00,
2013-07-17 13:36:00,73.9,49.5,29.90,ESE,116,4.0,10.0,42,0.00,,,0.00,meteohub,2013-07-17 19:36:00,
2013-07-17 13:42:00,74.1,49.6,29.90,ESE,110,7.0,11.0,42,0.00,,,0.00,meteohub,2013-07-17 19:42:00,
2013-07-17 13:48:00,73.9,46.8,29.89,East,80,5.0,11.0,38,0.00,,,0.00,meteohub,2013-07-17 19:48:00,
2013-07-17 13:54:00,74.3,47.7,29.89,ENE,70,1.0,9.0,39,0.00,,,0.00,meteohub,2013-07-17 19:54:00,
2013-07-17 14:00:00,74.8,47.5,29.89,ENE,60,5.0,10.0,38,0.00,,,0.00,meteohub,2013-07-17 20:00:00,
2013-07-17 14:06:00,75.0,46.2,29.88,ENE,74,5.0,12.0,36,0.00,,,0.00,meteohub,2013-07-17 20:06:00,
2013-07-17 14:12:00,75.0,46.9,29.88,East,96,5.0,12.0,37,0.00,,,0.00,meteohub,2013-07-17 20:12:00,
2013-07-17 14:18:00,75.0,44.8,29.88,ESE,108,0.0,12.0,34,0.00,,,0.00,meteohub,2013-07-17 20:18:00,
2013-07-17 14:24:00,75.6,46.0,29.88,ESE,117,1.0,10.0,35,0.00,,,0.00,meteohub,2013-07-17 20:24:00,
2013-07-17 14:30:00,75.9,44.8,29.87,SE,124,7.0,8.0,33,0.00,,,0.00,meteohub,2013-07-17 20:30:00,
2013-07-17 14:36:00,76.1,45.0,29.87,ESE,117,8.0,9.0,33,0.00,,,0.00,meteohub,2013-07-17 20:36:00,
2013-07-17 14:42:00,76.1,43.3,29.87,SE,139,7.0,11.0,31,0.00,,,0.00,meteohub,2013-07-17 20:42:00,
2013-07-17 14:48:00,76.3,42.6,29.87,ESE,110,8.0,11.0,30,0.00,,,0.00,meteohub,2013-07-17 20:48:00,
2013-07-17 14:54:00,77.0,45.7,29.87,ESE,112,8.0,11.0,33,0.00,,,0.00,meteohub,2013-07-17 20:54:00,
2013-07-17 15:00:00,76.8,43.9,29.86,ESE,114,0.0,10.0,31,0.00,,,0.00,meteohub,2013-07-17 21:00:00,
2013-07-17 15:06:00,77.0,42.3,29.86,ESE,110,4.0,10.0,29,0.00,,,0.00,meteohub,2013-07-17 21:06:00,
2013-07-17 15:12:00,77.4,42.6,29.86,ESE,111,9.0,13.0,29,0.00,,,0.00,meteohub,2013-07-17 21:12:00,
2013-07-17 15:18:00,77.5,42.8,29.86,ESE,116,4.0,14.0,29,0.00,,,0.00,meteohub,2013-07-17 21:18:00,
2013-07-17 15:24:00,77.5,42.8,29.85,ESE,103,10.0,14.0,29,0.00,,,0.00,meteohub,2013-07-17 21:24:00,
2013-07-17 15:30:00,77.5,41.0,29.85,SE,124,8.0,15.0,27,0.00,,,0.00,meteohub,2013-07-17 21:30:00,
2013-07-17 15:36:00,77.7,41.0,29.85,ESE,118,4.0,15.0,27,0.00,,,0.00,meteohub,2013-07-17 21:36:00,
2013-07-17 15:42:00,78.1,42.3,29.85,East,81,5.0,15.0,28,0.00,,,0.00,meteohub,2013-07-17 21:42:00,
2013-07-17 15:48:00,78.1,44.1,29.85,East,87,10.0,15.0,30,0.00,,,0.00,meteohub,2013-07-17 21:48:00,
2013-07-17 15:54:00,78.1,43.2,29.85,ESE,103,10.0,17.0,29,0.00,,,0.00,meteohub,2013-07-17 21:54:00,
2013-07-17 16:01:00,77.9,43.2,29.84,ENE,72,8.0,17.0,29,0.00,,,0.00,meteohub,2013-07-17 22:01:00,
2013-07-17 16:07:00,78.1,44.1,29.84,East,99,10.0,16.0,30,0.00,,,0.00,meteohub,2013-07-17 22:07:00,
2013-07-17 16:12:00,77.9,43.2,29.84,ESE,113,11.0,15.0,29,0.00,,,0.00,meteohub,2013-07-17 22:12:00,
2013-07-17 16:19:00,77.7,43.9,29.84,East,95,10.0,16.0,30,0.00,,,0.00,meteohub,2013-07-17 22:19:00,
2013-07-17 16:25:00,77.9,44.1,29.84,ENE,75,9.0,16.0,30,0.00,,,0.00,meteohub,2013-07-17 22:25:00,
2013-07-17 16:31:00,77.9,44.1,29.83,ENE,76,11.0,16.0,30,0.00,,,0.00,meteohub,2013-07-17 22:31:00,
2013-07-17 16:37:00,77.7,44.6,29.83,East,84,9.0,16.0,31,0.00,,,0.00,meteohub,2013-07-17 22:37:00,
2013-07-17 16:43:00,77.7,44.6,29.83,ESE,102,10.0,18.0,31,0.00,,,0.00,meteohub,2013-07-17 22:43:00,
2013-07-17 16:49:00,77.5,45.3,29.83,ESE,112,7.0,18.0,32,0.00,,,0.00,meteohub,2013-07-17 22:49:00,
2013-07-17 16:55:00,77.5,46.2,29.83,ESE,103,8.0,18.0,33,0.00,,,0.00,meteohub,2013-07-17 22:55:00,
2013-07-17 17:01:00,77.4,46.0,29.83,ESE,117,12.0,17.0,33,0.00,,,0.00,meteohub,2013-07-17 23:01:00,
2013-07-17 17:07:00,77.4,46.8,29.82,ESE,112,17.0,18.0,34,0.00,,,0.00,meteohub,2013-07-17 23:07:00,
2013-07-17 17:13:00,76.6,45.3,29.82,East,87,10.0,20.0,33,0.00,,,0.00,meteohub,2013-07-17 23:13:00,
2013-07-17 17:19:00,77.0,47.3,29.82,East,99,11.0,21.0,35,0.00,,,0.00,meteohub,2013-07-17 23:19:00,
2013-07-17 17:25:00,76.8,46.4,29.82,East,97,7.0,19.0,34,0.00,,,0.00,meteohub,2013-07-17 23:25:00,
2013-07-17 17:31:00,76.8,45.5,29.81,East,85,8.0,18.0,33,0.00,,,0.00,meteohub,2013-07-17 23:31:00,
2013-07-17 17:37:00,76.8,46.4,29.82,East,86,9.0,18.0,34,0.00,,,0.00,meteohub,2013-07-17 23:37:00,
2013-07-17 17:43:00,76.3,45.9,29.81,ENE,69,9.0,18.0,34,0.00,,,0.00,meteohub,2013-07-17 23:43:00,
2013-07-17 17:49:00,76.3,46.6,29.82,East,101,14.0,18.0,35,0.00,,,0.00,meteohub,2013-07-17 23:49:00,
2013-07-17 17:55:00,76.1,48.0,29.82,East,81,13.0,18.0,37,0.00,,,0.00,meteohub,2013-07-17 23:55:00,
2013-07-17 18:01:00,75.9,47.8,29.81,ENE,77,9.0,18.0,37,0.00,,,0.00,meteohub,2013-07-18 00:01:00,
2013-07-17 18:07:00,75.9,49.1,29.81,East,100,8.0,19.0,39,0.00,,,0.00,meteohub,2013-07-18 00:07:00,
2013-07-17 18:13:00,75.7,49.1,29.81,East,98,9.0,19.0,39,0.00,,,0.00,meteohub,2013-07-18 00:13:00,
2013-07-17 18:19:00,75.7,48.4,29.81,ESE,103,10.0,17.0,38,0.00,,,0.00,meteohub,2013-07-18 00:19:00,
2013-07-17 18:25:00,75.4,48.7,29.80,ESE,117,14.0,18.0,39,0.00,,,0.00,meteohub,2013-07-18 00:25:00,
2013-07-17 18:31:00,74.8,49.6,29.80,East,90,14.0,18.0,41,0.00,,,0.00,meteohub,2013-07-18 00:31:00,
2013-07-17 18:37:00,74.7,50.0,29.81,ESE,114,5.0,18.0,42,0.00,,,0.00,meteohub,2013-07-18 00:37:00,
2013-07-17 18:43:00,74.5,48.6,29.81,East,98,9.0,16.0,40,0.00,,,0.00,meteohub,2013-07-18 00:43:00,
2013-07-17 18:49:00,74.1,49.6,29.81,East,84,7.0,17.0,42,0.00,,,0.00,meteohub,2013-07-18 00:49:00,
2013-07-17 18:55:00,73.0,49.8,29.81,ESE,105,13.0,17.0,44,0.00,,,0.00,meteohub,2013-07-18 00:55:00,
2013-07-17 19:01:00,72.3,49.1,29.81,ENE,75,8.0,16.0,44,0.00,,,0.00,meteohub,2013-07-18 01:01:00,
2013-07-17 19:07:00,71.8,48.7,29.81,East,95,7.0,16.0,44,0.00,,,0.00,meteohub,2013-07-18 01:07:00,
2013-07-17 19:13:00,71.2,49.5,29.81,East,98,7.0,16.0,46,0.00,,,0.00,meteohub,2013-07-18 01:13:00,
2013-07-17 19:19:00,70.9,49.1,29.81,East,81,8.0,14.0,46,0.00,,,0.00,meteohub,2013-07-18 01:19:00,
2013-07-17 19:25:00,70.3,49.1,29.81,ENE,75,7.0,13.0,47,0.00,,,0.00,meteohub,2013-07-18 01:25:00,
2013-07-17 19:31:00,70.2,48.9,29.81,East,85,6.0,13.0,47,0.00,,,0.00,meteohub,2013-07-18 01:31:00,
2013-07-17 19:38:00,70.0,48.7,29.81,ESE,112,9.0,13.0,47,0.00,,,0.00,meteohub,2013-07-18 01:38:00,
2013-07-17 19:44:00,69.6,48.6,29.81,East,93,8.0,13.0,47,0.00,,,0.00,meteohub,2013-07-18 01:44:00,
2013-07-17 19:50:00,69.4,48.9,29.81,ESE,108,9.0,13.0,48,0.00,,,0.00,meteohub,2013-07-18 01:50:00,
2013-07-17 19:56:00,69.1,48.6,29.82,East,86,6.0,11.0,48,0.00,,,0.00,meteohub,2013-07-18 01:56:00,
2013-07-17 20:02:00,69.1,48.6,29.82,East,94,2.0,11.0,48,0.00,,,0.00,meteohub,2013-07-18 02:02:00,
2013-07-17 20:08:00,68.7,48.2,29.83,East,79,5.0,11.0,48,0.00,,,0.00,meteohub,2013-07-18 02:08:00,
2013-07-17 20:14:00,68.7,48.2,29.83,East,80,7.0,11.0,48,0.00,,,0.00,meteohub,2013-07-18 02:14:00,
2013-07-17 20:20:00,68.5,48.0,29.83,ENE,78,7.0,15.0,48,0.00,,,0.00,meteohub,2013-07-18 02:20:00,
2013-07-17 20:26:00,68.2,47.7,29.83,ENE,67,5.0,15.0,48,0.00,,,0.00,meteohub,2013-07-18 02:26:00,
2013-07-17 20:32:00,68.2,47.1,29.83,ESE,109,0.0,14.0,47,0.00,,,0.00,meteohub,2013-07-18 02:32:00,
2013-07-17 20:38:00,68.0,47.7,29.83,East,87,0.0,14.0,48,0.00,,,0.00,meteohub,2013-07-18 02:38:00,
2013-07-17 20:44:00,67.6,47.3,29.84,East,98,3.0,14.0,48,0.00,,,0.00,meteohub,2013-07-18 02:44:00,
2013-07-17 20:50:00,67.5,47.1,29.84,ESE,105,3.0,11.0,48,0.00,,,0.00,meteohub,2013-07-18 02:50:00,
2013-07-17 20:56:00,67.1,47.3,29.84,East,89,3.0,11.0,49,0.00,,,0.00,meteohub,2013-07-18 02:56:00,
2013-07-17 21:02:00,66.7,47.5,29.84,ESE,121,2.0,11.0,50,0.00,,,0.00,meteohub,2013-07-18 03:02:00,
2013-07-17 21:08:00,66.6,47.3,29.85,ENE,75,4.0,9.0,50,0.00,,,0.00,meteohub,2013-07-18 03:08:00,
2013-07-17 21:14:00,66.4,47.1,29.85,East,83,1.0,9.0,50,0.00,,,0.00,meteohub,2013-07-18 03:14:00,
2013-07-17 21:20:00,66.2,46.4,29.85,East,95,5.0,10.0,49,0.00,,,0.00,meteohub,2013-07-18 03:20:00,
2013-07-17 21:26:00,66.2,46.4,29.85,East,96,3.0,11.0,49,0.00,,,0.00,meteohub,2013-07-18 03:26:00,
2013-07-17 21:32:00,65.8,46.8,29.86,ENE,64,5.0,11.0,50,0.00,,,0.00,meteohub,2013-07-18 03:32:00,
2013-07-17 21:38:00,65.8,46.8,29.86,ENE,64,4.0,11.0,50,0.00,,,0.00,meteohub,2013-07-18 03:38:00,
2013-07-17 21:44:00,65.7,46.6,29.86,ENE,76,3.0,13.0,50,0.00,,,0.00,meteohub,2013-07-18 03:44:00,
2013-07-17 21:50:00,65.5,47.5,29.86,ENE,66,8.0,12.0,52,0.00,,,0.00,meteohub,2013-07-18 03:50:00,
2013-07-17 21:56:00,64.9,47.5,29.86,East,79,5.0,9.0,53,0.00,,,0.00,meteohub,2013-07-18 03:56:00,
2013-07-17 22:02:00,64.9,47.5,29.86,SE,127,4.0,9.0,53,0.00,,,0.00,meteohub,2013-07-18 04:02:00,
2013-07-17 22:05:00,64.8,48.2,29.86,East,91,2.0,9.0,55,0.00,,,0.00,meteohub,2013-07-18 04:05:00,
2013-07-17 22:08:00,64.6,48.6,29.86,East,91,3.0,9.0,56,0.00,,,0.00,meteohub,2013-07-18 04:08:00,
2013-07-17 22:14:00,64.0,47.1,29.86,ENE,78,2.0,9.0,54,0.00,,,0.00,meteohub,2013-07-18 04:14:00,
2013-07-17 22:20:00,63.7,47.7,29.86,ENE,78,2.0,8.0,56,0.00,,,0.00,meteohub,2013-07-18 04:20:00,
2013-07-17 22:26:00,63.5,47.5,29.86,ENE,67,3.0,7.0,56,0.00,,,0.00,meteohub,2013-07-18 04:26:00,
2013-07-17 22:32:00,63.5,47.1,29.86,NE,56,3.0,9.0,55,0.00,,,0.00,meteohub,2013-07-18 04:32:00,
2013-07-17 22:38:00,63.7,46.8,29.86,ENE,61,0.0,9.0,54,0.00,,,0.00,meteohub,2013-07-18 04:38:00,
2013-07-17 22:44:00,63.7,46.2,29.86,ENE,61,1.0,9.0,53,0.00,,,0.00,meteohub,2013-07-18 04:44:00,
2013-07-17 22:50:00,63.3,46.4,29.87,ENE,60,2.0,5.0,54,0.00,,,0.00,meteohub,2013-07-18 04:50:00,
2013-07-17 22:56:00,63.1,46.2,29.87,NE,40,2.0,5.0,54,0.00,,,0.00,meteohub,2013-07-18 04:56:00,
2013-07-17 23:02:00,63.0,46.0,29.86,NE,39,2.0,5.0,54,0.00,,,0.00,meteohub,2013-07-18 05:02:00,
2013-07-17 23:08:00,62.8,46.4,29.86,North,355,4.0,5.0,55,0.00,,,0.00,meteohub,2013-07-18 05:08:00,
2013-07-17 23:15:00,62.6,46.2,29.86,NNW,343,4.0,5.0,55,0.00,,,0.00,meteohub,2013-07-18 05:15:00,
2013-07-17 23:21:00,62.4,46.0,29.86,NNW,336,4.0,7.0,55,0.00,,,0.00,meteohub,2013-07-18 05:21:00,
2013-07-17 23:27:00,62.2,46.4,29.86,NNW,335,5.0,7.0,56,0.00,,,0.00,meteohub,2013-07-18 05:27:00,
2013-07-17 23:33:00,61.9,46.0,29.86,NW,326,3.0,7.0,56,0.00,,,0.00,meteohub,2013-07-18 05:33:00,
2013-07-17 23:39:00,61.5,46.2,29.87,NW,326,4.0,7.0,57,0.00,,,0.00,meteohub,2013-07-18 05:39:00,
2013-07-17 23:45:00,61.3,46.0,29.87,NW,326,3.0,7.0,57,0.00,,,0.00,meteohub,2013-07-18 05:45:00,
2013-07-17 23:51:00,61.3,46.4,29.87,NW,326,4.0,6.0,58,0.00,,,0.00,meteohub,2013-07-18 05:51:00,
2013-07-17 23:57:00,61.2,46.8,29.87,NW,326,1.0,6.0,59,0.00,,,0.00,meteohub,2013-07-18 05:57:00,